Gunnison, CO

5:46 PM MDT on September 17, 2019 (GMT -0600)
Gunnison County

Weather History for KGUC - July, 2019

Change the Weather History Date:

Thursday, July 25, 2019

  Actual Average Record
Temperature  
Mean Temperature 63 °F -  
Max Temperature 75 °F 76 °F 84 °F (2003)
Min Temperature 51 °F 46 °F 42 °F (1997)
Degree Days  
Heating Degree Days 2    
Growing Degree Days 13 (Base 50)    
Moisture  
Dew Point 53 °F    
Average Humidity 68    
Maximum Humidity 93    
Minimum Humidity 42    
Precipitation  
Precipitation 0.03 in - - ()
Sea Level Pressure  
Sea Level Pressure 30.18 in    
Wind  
Wind Speed 4 mph (North)    
Max Wind Speed 14 mph    
Max Gust Speed 21 mph    
Visibility 10 miles    
Events Rain , Thunderstorm    
Averages and records for this station are not official NWS values.
T = Trace of Precipitation, MM = Missing Value Source: NWS Daily Summary

Daily Weather History Graph

Daily Weather History Graph

Search for Another Location

Airport or City:

Astronomy

Jul. 25, 2019 Rise Set
Actual Time 6:03 AM MDT 8:24 PM MDT
Civil Twilight 5:33 AM MDT 8:54 PM MDT
Nautical Twilight 4:56 AM MDT 9:31 PM MDT
Astronomical Twilight 4:15 AM MDT 10:12 PM MDT
Moon 12:46 AM MDT (7/25) 2:11 PM MDT (7/25)
Length of Visible Light 15h 21m
Length of Day
14h 21m
Last Quarter, 43% of the Moon is Illuminated
Jul 25
Last Quarter
Jul 31
New
Aug 7
First Quarter
Aug 15
Full
Aug 23
Last Quarter

Hourly Weather History & Observations

Time (MDT) Temp. Dew Point Humidity Pressure Visibility Wind Dir Wind Speed Gust Speed Precip Events Conditions
12:56 AM 57.0 °F 54.0 °F 89% 30.17 in 10.0 mi East 3.5 mph - N/A   Clear
1:56 AM 55.9 °F 54.0 °F 93% 30.17 in 10.0 mi North 4.6 mph - N/A   Mostly Cloudy
2:56 AM 55.9 °F 52.0 °F 87% 30.13 in 10.0 mi North 3.5 mph - N/A   Mostly Cloudy
3:56 AM 54.0 °F 52.0 °F 93% 30.13 in 10.0 mi North 5.8 mph - N/A   Mostly Cloudy
4:56 AM 53.1 °F 50.0 °F 89% 30.19 in 10.0 mi NNE 4.6 mph - N/A   Clear
5:56 AM 51.1 °F 48.9 °F 92% 30.26 in 10.0 mi Calm Calm - N/A   Partly Cloudy
6:56 AM 53.1 °F 50.0 °F 89% 30.28 in 10.0 mi Calm Calm - N/A   Overcast
7:56 AM 57.0 °F 50.0 °F 77% 30.28 in 10.0 mi Calm Calm - N/A   Partly Cloudy
8:56 AM 57.9 °F 50.0 °F 75% 30.27 in 10.0 mi Calm Calm - N/A   Clear
9:56 AM 62.1 °F 52.0 °F 70% 30.23 in 10.0 mi Calm Calm - N/A   Clear
10:56 AM 66.0 °F 53.1 °F 63% 30.21 in 10.0 mi Calm Calm - N/A   Clear
11:56 AM 70.0 °F 53.1 °F 55% 30.17 in 10.0 mi Variable 3.5 mph - N/A   Clear
12:56 PM 73.9 °F 53.1 °F 48% 30.12 in 10.0 mi Calm Calm - N/A   Clear
1:56 PM 75.0 °F 54.0 °F 48% 30.10 in 10.0 mi SW 5.8 mph - N/A   Clear
2:21 PM 73.4 °F 51.8 °F 47% 30.35 in 10.0 mi North 12.7 mph 20.7 mph N/A Thunderstorm Mostly Cloudy
2:25 PM 73.4 °F 51.8 °F 47% 30.35 in 10.0 mi North 13.8 mph - N/A   Mostly Cloudy
2:56 PM 69.1 °F 55.0 °F 61% 30.11 in 6.0 mi NE 8.1 mph - 0.00 in Rain , Thunderstorm Light Thunderstorms and Rain
3:11 PM 69.8 °F 57.2 °F 64% 30.34 in 10.0 mi North 5.8 mph - 0.00 in   Scattered Clouds
3:56 PM 73.9 °F 55.0 °F 52% 30.09 in 10.0 mi NNW 6.9 mph - 0.00 in   Mostly Cloudy
4:56 PM 75.9 °F 51.1 °F 42% 30.06 in 10.0 mi NNE 8.1 mph - N/A   Mostly Cloudy
5:56 PM 73.9 °F 53.1 °F 48% 30.08 in 9.0 mi Variable 3.5 mph - 0.01 in Rain Light Rain
6:56 PM 75.0 °F 53.1 °F 46% 30.07 in 10.0 mi NNE 5.8 mph - 0.01 in   Overcast
7:56 PM 68.0 °F 54.0 °F 61% 30.11 in 10.0 mi East 11.5 mph - N/A   Overcast
9:56 PM 64.0 °F 55.0 °F 73% 30.14 in 10.0 mi NNW 5.8 mph - N/A   Scattered Clouds
10:56 PM 62.1 °F 55.9 °F 80% 30.16 in 10.0 mi Calm Calm - 0.00 in   Overcast
11:56 PM 62.1 °F 53.1 °F 72% 30.17 in 10.0 mi WSW 10.4 mph - 0.01 in Rain Light Rain